Regional Weather Roundup
Issued by NWS New Orleans/Baton Rouge, LA

Home | Current Version | Previous Version | Graphics & Text | Print | Product List | Glossary On
Versions: 1 2 3 4 5 6 7 8 9 10 11 12 13 14 15 16 17 18 19 20 21 22 23 24 25 26 27 28 29 30 31 32 33 34 35 36 37 38 39 40 41 42 43 44 45 46 47 48 49 50
948
ASUS44 KLIX 300401
RWRLIX
NEW ORLEANS REGIONAL WEATHER ROUNDUP
NATIONAL WEATHER SERVICE NEW ORLEANS LA
1000 PM CST THU JAN 29 2015

NOTE: "FAIR" INDICATES FEW OR NO CLOUDS BELOW 12,000 FEET WITH NO
      SIGNIFICANT WEATHER AND/OR OBSTRUCTIONS TO VISIBILITY.
      SKY/WX - SKY CONDITION AND SIGNIFICANT WEATHER.
      TMP - AIR TEMPERATURE.     DP    - DEWPOINT TEMPERATURE.
      RH  - RELATIVE HUMIDITY.   PRES  - PRESSURE.
      HI  - HEAT INDEX.          WCI   - WIND CHILL INDEX.

*  THESE STATIONS ARE NOT NWS OR FAA STATIONS AND ARE NOT UNDER
   NWS QUALITY CONTROL.

LAZ038-040-048-061>063-065>067-069-300500-
SOUTHEAST LOUISIANA

CITY           SKY/WX    TMP DP  RH WIND       PRES   REMARKS
N.O. AUDUBON     N/A     58  58 100 MISG        N/A
N.O. INTL ARPT PTCLDY    62  56  80 W8        30.23R
N.O. LAKEFRONT CLEAR     61  55  81 W12       30.23R
N.O. DOWNTOWN* NOT AVBL
SLIDELL        PTCLDY    58  53  84 CALM      30.22R
BATON ROUGE    CLOUDY    62  52  69 W3        30.23S
BOOTHVILLE     PTCLDY    62  61  96 SW6       30.25R
BELLE CHASSE   PTCLDY    62  56  80 W7        30.23R
BOGALUSA*        N/A     53  50  89 CALM      30.23S
GALLIANO*      NOT AVBL
NEW ROADS*     NOT AVBL
GONZALES*      NOT AVBL
HAMMOND*       NOT AVBL
HOUMA*         CLEAR     58  57  97 CALM      30.25S
PORT FOURCHON* CLEAR     64  61  88 W6        30.29R

$$

MSZ070-080>082-300500-
SOUTHERN MISSISSIPPI

CITY           SKY/WX    TMP DP  RH WIND       PRES   REMARKS
MCCOMB         MOCLDY    59  50  72 NW5       30.23R
GULFPORT       CLEAR     60  57  89 W3        30.21R
BILOXI         PTCLDY    60  59  97 W8        30.21R
PASCAGOULA     CLEAR     59  56  89 SW7       30.21S

$$

COASTAL OBSERVATIONS
LAKE AND NEARSHORE STATIONS

STATION/POSITION TIME  TEMP    WIND        PRES    WAVE
                       AIR SEA DIR/SP/G            HT/PER
                 (UTC) (F)     (DEG/KT/KT) (MB)    (FT/S)
PASCAGOULA       0318   61     220/ 11/ 13 1022.3
WAVELAND YACHT   0318   60     240/  6/  9 1022.0
GRAND ISLE       0318   65 64  280/  6/  8 1024.6
SOUTHWEST PASS   0318   61 47  200/  6/  8 1024.2
NEW CANAL        0318   65 58  230/  5/  8 1023.7
SHELL BEACH      0318   62 57  220/  7/  9 1023.3

OFFSHORE STATIONS

STATION/POSITION TIME  TEMP    WIND        PRES    WAVE
                       AIR SEA DIR/SP/G            HT/PER
                 (UTC) (F)     (DEG/KT/KT) (MB)    (FT/S)
64 S DAUPHIN ISL 0312   68 68  230/ 14/ 14 1023.8    2/ 5

$$




USA.gov is the U.S. government's official web portal to all federal, state and local government web resources and services.